Regional Weather Roundup
Issued by NWS Little Rock, AR

Home | Current Version | Previous Version | Text Only | Print | Product List | Glossary Off
Versions: 1 2 3 4 5 6 7 8 9 10 11 12 13 14 15 16 17 18 19 20 21 22 23 24 25 26 27 28 29 30 31 32 33 34 35 36 37 38 39 40 41 42 43 44 45 46 47 48 49 50

000
ASUS44 KLZK 061005
RWRLZK

WEATHER ROUNDUP FOR ARKANSAS
NATIONAL WEATHER SERVICE LITTLE ROCK AR
500 AM CDT WED MAY 06 2015

NOTE: "FAIR" INDICATES FEW OR NO CLOUDS BELOW 12,000 FEET WITH NO
SIGNIFICANT WEATHER AND/OR OBSTRUCTIONS TO VISIBILITY.

ARZ001-003-010-029-061100-
NORTHWEST ARKANSAS

CITY           SKY/WX    TMP DP  RH WIND       PRES   REMARKS
FAYETTEVILLE   CLOUDY    68  59  73 S13       30.02S
FORT SMITH     CLOUDY    72  57  59 SE3       30.02R
HARRISON       MOCLDY    64  55  72 SE8       30.06S
BENTONVILLE    CLOUDY    70  55  60 S13G21    30.02S
ROGERS         CLOUDY    69  56  62 S10       30.03R
SILOAM SPGS    CLOUDY    70  54  56 S9G17     30.03R
HIGHFILL       CLOUDY    70  56  61 S14G23    30.01R
$$

ARZ004-005-016-061100-
NORTH CENTRAL ARKANSAS

CITY           SKY/WX    TMP DP  RH WIND       PRES   REMARKS
BATESVILLE     CLEAR     66  54  63 S3        30.09S
FLIPPIN        CLEAR     64  52  63 CALM      30.06S
MTN HOME       CLEAR     63  52  67 SE6       30.07S
$$

ARZ040-041-061100-
WEST CENTRAL ARKANSAS

CITY           SKY/WX    TMP DP  RH WIND       PRES   REMARKS
MENA           CLOUDY    72  63  73 CALM      30.05S
MOUNT IDA      PTCLDY    70  59  68 VRB6      30.04S
$$

ARZ009-017-025-026-028-061100-
NORTHEAST ARKANSAS

CITY           SKY/WX    TMP DP  RH WIND       PRES   REMARKS
CORNING          N/A     59  54  82 SE8       30.11S
JONESBORO      CLEAR     56  54  93 E5        30.11S
NEWPORT        CLEAR     64  55  72 CALM      30.10F
WALNUT RIDGE   CLEAR     63  52  67 CALM      30.10S
BLYTHEVILLE    CLEAR     65  55  70 S5        30.13R
$$

ARZ022-023-033-042-044-061100-
CENTRAL ARKANSAS

CITY           SKY/WX    TMP DP  RH WIND       PRES   REMARKS
LITTLE ROCK    MOCLDY    66  56  70 S7        30.09R
N LITTLE ROCK    N/A     67  58  74 S7        30.09R
JACKSONVILLE   MOCLDY    67  56  68 S5        30.08S
SEARCY         CLOUDY    60  57  89 CALM      30.10S
HOT SPRINGS    CLOUDY    69  57  65 SE5       30.08R
RUSSELLVILLE   MOCLDY    68  56  65 SE8       30.06S
CLINTON        MOCLDY    59  57  94 CALM      30.10S
$$

ARZ036-061100-
EAST ARKANSAS

CITY           SKY/WX    TMP DP  RH WIND       PRES   REMARKS
WEST MEMPHIS   CLEAR     61  56  83 SE5       30.10S
$$

ARZ050-053-066-070-073-061100-
SOUTHWEST ARKANSAS

CITY           SKY/WX    TMP DP  RH WIND       PRES   REMARKS
ARKADELPHIA    FAIR      62  62 100 N3        30.07S
CAMDEN         CLEAR     59  55  88 CALM      30.07S
TEXARKANA      CLOUDY    69  63  81 S7        30.04F
EL DORADO      CLEAR     61  57  87 CALM      30.07S
DE QUEEN       CLOUDY    70  63  78 SE5       30.02S
$$

ARZ056-057-069-061100-
SOUTHEAST ARKANSAS

CITY           SKY/WX    TMP DP  RH WIND       PRES   REMARKS
PINE BLUFF     PTCLDY    64  57  78 S3        30.09S
STUTTGART      CLEAR     66  55  68 SE8       30.10S
MONTICELLO     CLEAR     62  57  83 CALM      30.09S

$$




USA.gov is the U.S. government's official web portal to all federal, state and local government web resources and services.